Location: Antioch Baptist Church
(32.6696°N, 85.7327°W)
Time: 21:03:26
(UTC+00:00)

OAO 2 Rocket - Pass Details

Date: 14 July 2020
Orbit: 676 x 746 km, 35.0° (Epoch: 13 August)

Event Time Altitude Azimuth Distance (km) Brightness Sun altitude
Rises 01:49:52 0° 284° (WNW) 3,124 8.1 -11.3°
Reaches altitude 10° 01:52:17 10° 283° (WNW) 2,213 7.1 -11.7°
Maximum altitude 01:57:30 77° 198° (SSW) 754 3.4 -12.6°
Enters shadow 02:01:23 19° 114° (ESE) 1,730 4.7 -13.2°
